• In Deutschland
  • Länderverzeichnis
  • Für 7 Tage
  • Wassertemperatur
  • Satellitenkarten
  • Wetterkarte
  • Widgets
  • user-avatar
    Anmelden

    Stündliche Wetter Nienburg

    Heute, 26 September, Mittwoch

    Zeit Temperatur Niederschläge Wind Luftdruck Luftfeuchtigkeit
    00:00 +8°C° 0 mm 2 m/S 774 mmHg 77%
    01:00 +7°C° 0 mm 2 m/S 774 mmHg 75%
    02:00 +8°C° 0 mm 2 m/S 773 mmHg 73%
    03:00 +8°C° 0 mm 3 m/S 773 mmHg 71%
    04:00 +8°C° 0 mm 3 m/S 773 mmHg 68%
    05:00 +7°C° 0 mm 4 m/S 773 mmHg 67%
    06:00 +7°C° 0 mm 4 m/S 772 mmHg 66%
    07:00 +7°C° 0 mm 4 m/S 772 mmHg 66%
    08:00 +10°C° 0 mm 4 m/S 772 mmHg 60%
    09:00 +10°C° 0 mm 5 m/S 771 mmHg 54%
    10:00 +13°C° 0 mm 6 m/S 771 mmHg 48%
    11:00 +15°C° 0 mm 6 m/S 771 mmHg 46%
    12:00 +16°C° 0 mm 6 m/S 770 mmHg 44%
    13:00 +17°C° 0 mm 6 m/S 770 mmHg 42%
    14:00 +17°C° 0 mm 6 m/S 770 mmHg 43%
    15:00 +17°C° 0 mm 6 m/S 769 mmHg 45%
    16:00 +19°C° 0 mm 6 m/S 769 mmHg 46%
    17:00 +16°C° 0 mm 5 m/S 769 mmHg 50%
    18:00 +15°C° 0 mm 5 m/S 769 mmHg 54%
    19:00 +14°C° 0 mm 4 m/S 769 mmHg 58%
    20:00 +14°C° 0 mm 4 m/S 769 mmHg 61%
    21:00 +13°C° 0 mm 4 m/S 770 mmHg 63%
    22:00 +13°C° 0 mm 4 m/S 770 mmHg 66%
    23:00 +13°C° 0 mm 4 m/S 770 mmHg 69%

    Morgen, 27 September, Donnerstag

    Zeit Temperatur Niederschläge Wind Luftdruck Luftfeuchtigkeit
    00:00 +12°C° 0 mm 4 m/S 770 mmHg 72%
    01:00 +12°C° 0 mm 4 m/S 770 mmHg 75%
    02:00 +12°C° 0 mm 3 m/S 770 mmHg 76%
    03:00 +11°C° 0 mm 3 m/S 769 mmHg 78%
    04:00 +11°C° 0 mm 3 m/S 769 mmHg 80%
    05:00 +11°C° 0 mm 3 m/S 769 mmHg 79%
    06:00 +11°C° 0 mm 3 m/S 769 mmHg 79%
    07:00 +11°C° 0 mm 3 m/S 769 mmHg 78%
    08:00 +13°C° 0 mm 3 m/S 769 mmHg 72%
    09:00 +15°C° 0 mm 4 m/S 768 mmHg 66%
    10:00 +18°C° 0 mm 4 m/S 768 mmHg 60%
    11:00 +19°C° 0 mm 4 m/S 768 mmHg 57%
    12:00 +21°C° 0 mm 4 m/S 767 mmHg 54%
    13:00 +22°C° 0 mm 4 m/S 767 mmHg 51%
    14:00 +22°C° 0 mm 4 m/S 766 mmHg 49%
    15:00 +22°C° 0 mm 4 m/S 765 mmHg 48%
    16:00 +22°C° 0 mm 4 m/S 764 mmHg 46%
    17:00 +20°C° 0 mm 3 m/S 764 mmHg 51%
    18:00 +18°C° 0 mm 3 m/S 764 mmHg 55%
    19:00 +16°C° 0 mm 3 m/S 764 mmHg 60%
    20:00 +14°C° 0 mm 3 m/S 764 mmHg 63%
    21:00 +13°C° 0 mm 3 m/S 763 mmHg 66%
    22:00 +12°C° 0 mm 3 m/S 763 mmHg 69%
    23:00 +12°C° 0 mm 3 m/S 763 mmHg 73%

    übermorgen, 28 September, Freitag

    Zeit Temperatur Niederschläge Wind Luftdruck Luftfeuchtigkeit
    00:00 +11°C° 0 mm 3 m/S 763 mmHg 77%
    01:00 +10°C° 0 mm 3 m/S 763 mmHg 81%
    02:00 +11°C° 0 mm 3 m/S 763 mmHg 83%
    03:00 +11°C° 0 mm 3 m/S 763 mmHg 84%
    04:00 +12°C° 0 mm 3 m/S 763 mmHg 86%
    05:00 +11°C° 0 mm 3 m/S 764 mmHg 82%
    06:00 +11°C° 0 mm 3 m/S 764 mmHg 78%
    07:00 +11°C° 0 mm 3 m/S 764 mmHg 74%
    08:00 +12°C° 0 mm 3 m/S 765 mmHg 68%
    09:00 +13°C° 0 mm 4 m/S 765 mmHg 62%
    10:00 +14°C° 0 mm 4 m/S 766 mmHg 56%
    11:00 +14°C° 0 mm 4 m/S 766 mmHg 54%
    12:00 +14°C° 0 mm 4 m/S 766 mmHg 53%
    13:00 +15°C° 0 mm 4 m/S 766 mmHg 51%
    14:00 +15°C° 0 mm 4 m/S 766 mmHg 52%
    15:00 +14°C° 0 mm 5 m/S 766 mmHg 53%
    16:00 +14°C° 0 mm 5 m/S 766 mmHg 54%
    17:00 +13°C° 0 mm 4 m/S 766 mmHg 59%
    18:00 +11°C° 0 mm 4 m/S 767 mmHg 64%
    19:00 +10°C° 0 mm 3 m/S 767 mmHg 69%
    20:00 +9°C° 0 mm 3 m/S 768 mmHg 73%
    21:00 +8°C° 0 mm 3 m/S 768 mmHg 77%
    22:00 +7°C° 0 mm 2 m/S 768 mmHg 82%
    23:00 +7°C° 0 mm 2 m/S 769 mmHg 83%

    29 September, Samstag

    Zeit Temperatur Niederschläge Wind Luftdruck Luftfeuchtigkeit
    00:00 +7°C° 0 mm 2 m/S 769 mmHg 85%
    01:00 +7°C° 0 mm 1 m/S 769 mmHg 87%
    02:00 +7°C° 0 mm 1 m/S 769 mmHg 87%
    03:00 +7°C° 0 mm 1 m/S 769 mmHg 88%
    04:00 +6°C° 0 mm 1 m/S 769 mmHg 88%
    05:00 +6°C° 0 mm 1 m/S 770 mmHg 88%
    06:00 +6°C° 0 mm 1 m/S 770 mmHg 88%
    07:00 +6°C° 0 mm 1 m/S 770 mmHg 87%
    08:00 +9°C° 0 mm 1 m/S 770 mmHg 78%
    09:00 +11°C° 0 mm 1 m/S 770 mmHg 69%
    10:00 +13°C° 0 mm 1 m/S 770 mmHg 60%
    11:00 +14°C° 0 mm 1 m/S 770 mmHg 56%
    12:00 +15°C° 0 mm 1 m/S 770 mmHg 52%
    13:00 +16°C° 0 mm 1 m/S 770 mmHg 48%
    14:00 +15°C° 0 mm 1 m/S 769 mmHg 49%
    15:00 +15°C° 0 mm 1 m/S 769 mmHg 50%
    16:00 +15°C° 0 mm 1 m/S 769 mmHg 51%
    17:00 +13°C° 0 mm 1 m/S 769 mmHg 57%
    18:00 +12°C° 0 mm 1 m/S 769 mmHg 63%
    19:00 +10°C° 0 mm 1 m/S 769 mmHg 69%
    20:00 +10°C° 0 mm 1 m/S 769 mmHg 71%
    21:00 +9°C° 0 mm 1 m/S 769 mmHg 73%
    22:00 +9°C° 0 mm 1 m/S 769 mmHg 75%
    23:00 +8°C° 0 mm 1 m/S 768 mmHg 76%

    30 September, Sonntag

    Zeit Temperatur Niederschläge Wind Luftdruck Luftfeuchtigkeit
    00:00 +8°C° 0 mm 1 m/S 768 mmHg 77%
    01:00 +8°C° 0 mm 1 m/S 768 mmHg 78%
    02:00 +7°C° 0 mm 1 m/S 767 mmHg 77%
    03:00 +7°C° 0 mm 1 m/S 767 mmHg 77%
    04:00 +7°C° 0 mm 1 m/S 767 mmHg 77%
    05:00 +7°C° 0 mm 1 m/S 766 mmHg 76%
    06:00 +7°C° 0 mm 1 m/S 766 mmHg 75%
    07:00 +7°C° 0 mm 1 m/S 766 mmHg 74%
    08:00 +9°C° 0 mm 1 m/S 766 mmHg 66%
    09:00 +11°C° 0 mm 1 m/S 765 mmHg 58%
    10:00 +13°C° 0 mm 1 m/S 765 mmHg 50%
    11:00 +14°C° 0 mm 1 m/S 764 mmHg 46%
    12:00 +16°C° 0 mm 1 m/S 764 mmHg 43%
    13:00 +18°C° 0 mm 1 m/S 763 mmHg 39%
    14:00 +18°C° 0 mm 1 m/S 763 mmHg 39%
    15:00 +18°C° 0 mm 1 m/S 762 mmHg 39%
    16:00 +18°C° 0 mm 1 m/S 762 mmHg 39%
    17:00 +15°C° 0 mm 1 m/S 762 mmHg 45%
    18:00 +13°C° 0 mm 1 m/S 761 mmHg 51%
    19:00 +11°C° 0 mm 1 m/S 761 mmHg 57%
    20:00 +10°C° 0 mm 1 m/S 761 mmHg 60%
    21:00 +10°C° 0 mm 1 m/S 761 mmHg 63%
    22:00 +9°C° 0 mm 1 m/S 761 mmHg 66%
    23:00 +9°C° 0 mm 1 m/S 760 mmHg 68%

    1 Oktober, Montag

    Zeit Temperatur Niederschläge Wind Luftdruck Luftfeuchtigkeit
    00:00 +9°C° 0 mm 1 m/S 760 mmHg 70%
    01:00 +9°C° 0 mm 1 m/S 759 mmHg 71%
    02:00 +9°C° 0 mm 1 m/S 759 mmHg 73%
    03:00 +9°C° 0 mm 1 m/S 759 mmHg 75%
    04:00 +9°C° 0 mm 1 m/S 759 mmHg 77%
    05:00 +8°C° 0 mm 2 m/S 759 mmHg 79%
    06:00 +8°C° 0 mm 2 m/S 759 mmHg 80%
    07:00 +8°C° 0 mm 2 m/S 759 mmHg 82%
    08:00 +9°C° 0.1 mm 2 m/S 759 mmHg 83%
    09:00 +10°C° 0.1 mm 3 m/S 759 mmHg 83%
    10:00 +10°C° 0.1 mm 3 m/S 759 mmHg 84%
    11:00 +11°C° 0.2 mm 3 m/S 759 mmHg 78%
    12:00 +12°C° 0.2 mm 3 m/S 760 mmHg 73%
    13:00 +13°C° 0.2 mm 4 m/S 760 mmHg 67%
    14:00 +12°C° 0.3 mm 4 m/S 760 mmHg 69%
    15:00 +12°C° 0.3 mm 5 m/S 760 mmHg 72%
    16:00 +10°C° 0.3 mm 6 m/S 760 mmHg 74%
    17:00 +9°C° 0.1 mm 5 m/S 760 mmHg 76%
    18:00 +8°C° 0.1 mm 4 m/S 761 mmHg 79%
    19:00 +6°C° 0.1 mm 4 m/S 761 mmHg 81%
    20:00 +7°C° 0 mm 3 m/S 762 mmHg 82%
    21:00 +5°C° 0 mm 3 m/S 762 mmHg 84%
    22:00 +4°C° 0 mm 3 m/S 762 mmHg 85%
    23:00 +4°C° 0 mm 3 m/S 762 mmHg 86%
    Mehr zeigen